Hourly Data Report for December 08, 2017

All times are specified in Local Standard Time (LST). Add 1 hour to adjust for Daylight Saving Time where and when it is observed.

LA RONGE A
SASKATCHEWAN

55°09'05.000" N
105°16'01.000" W
379.20 m
4064155
71922
YVC

Download Data

Hourly Data (December 2017)
Hourly Data Report for December 8, 2017
Temp Definition
°C
Dew Point Temp Definition
°C
Rel Hum Definition
%
Wind Dir Definition
10's deg

Wind Spd Definition
km/h
Visibility Definition
km
Stn Press Definition
kPa
Hmdx Definition


Wind Chill Definition


Weather Definition


TIME
00:00 Legend Double Dagger -6.8 -7.8 93 27 12 24.1 97.13   -12 Mainly Clear
01:00 Legend Double Dagger -6.3 -7.2 94 27 15 24.1 97.10   -12 LegendNANA
02:00 Legend Double Dagger -5.5 -6.3 94 27 17 24.1 97.09   -12 LegendNANA
03:00 Legend Double Dagger -4.8 -5.5 95 27 20 24.1 97.07   -11 Mainly Clear
04:00 Legend Double Dagger -4.4 -5.1 95 28 22 24.1 97.07   -11 LegendNANA
05:00 Legend Double Dagger -4.4 -5.1 95 28 17 24.1 97.07   -10 LegendNANA
06:00 Legend Double Dagger -4.5 -5.2 95 28 16 24.1 97.10   -10 Mainly Clear
07:00 Legend Double Dagger -4.2 -4.9 95 27 16 24.1 97.09   -10 LegendNANA
08:00 Legend Double Dagger -3.5 -4.5 93 26 13 24.1 97.07   -8 LegendNANA
09:00 Legend Double Dagger -2.7 -4.6 87 29 18 24.1 97.08   -8 Mostly Cloudy
10:00 Legend Double Dagger -3.0 -4.9 87 28 12 24.1 97.11   -7 LegendNANA
11:00 Legend Double Dagger -2.7 -5.0 84 28 16 24.1 97.11   -8 LegendNANA
12:00 Legend Double Dagger -2.5 -5.2 82 29 14 24.1 97.15   -7 Mostly Cloudy
13:00 Legend Double Dagger -2.1 -6.5 72 33 14 24.1 97.23   -7 LegendNANA
14:00 Legend Double Dagger -2.3 -6.5 73 35 10 24.1 97.25   -6 LegendNANA
15:00 Legend Double Dagger -2.9 -6.5 76 34 8 24.1 97.26   -6 Mostly Cloudy
16:00 Legend Double Dagger -3.4 -6.7 78 35 8 24.1 97.29   -7 LegendNANA
17:00 Legend Double Dagger -3.9 -6.8 80 35 5 24.1 97.33   -6 LegendNANA
18:00 Legend Double Dagger -4.5 -6.9 83 1 5 24.1 97.37   -7 Mostly Cloudy
19:00 Legend Double Dagger -4.7 -7.1 84 16 3 24.1 97.36   -6 LegendNANA
20:00 Legend Double Dagger -5.1 -7.0 86 15 11 24.1 97.30   -10 LegendNANA
21:00 Legend Double Dagger -6.7 -8.1 90 10 5 24.1 97.24   -9 Mainly Clear
22:00 Legend Double Dagger -7.9 -8.9 93 16 5 24.1 97.16   -11 LegendNANA
23:00 Legend Double Dagger -9.4 -10.3 93 17 5 24.1 97.12   -12 LegendNANA

Notes on Data Quality.

Legend

  • E = Estimated
  • M = Missing
  • NA = Not Available
  • ‡ = Partner data that is not subject to review by the National Climate Archives
Date modified: